{"data":{"norad_id":66725,"epoch":"2026-09-19T22:24:12.049056Z","epoch_age_seconds":74718,"freshness":"FRESH","line1":"1 66725U 25276BM  26262.93347279  .00004787  00000+0  21718-3 0  9997","line2":"2 66725  97.4093 334.9180 0003949  71.9218 288.2448 15.21279362 44823","mean_motion":15.21279362,"eccentricity":0.0003949,"inclination_deg":97.4093,"raan_deg":334.918,"arg_perigee_deg":71.9218,"mean_anomaly_deg":288.2448,"bstar":0.00021718,"rev_number":4482,"period_min":94.657170534862,"perigee_km":499.26359977182,"apogee_km":504.69751661928,"semimajor_km":6880.1175581956,"source":"CELESTRAK","updated_at":"2026-09-20T09:00:34.751699Z"}}